星链-3810 (STARLINK-3810 )

导读 | 豆包AI

STARLINK-3810是美国SpaceX公司星链星座的成员,于2022年4月21日发射入轨。它属于星链低轨互联网卫星,运行在近地轨道,为星链全球卫星宽带网络提供支撑。星链计划计划部署数万颗卫星,旨在为全球提供高速低延迟互联网服务,这颗卫星是该巨型星座组网进程中的组成部分,助力扩展星座覆盖与服务能力。

Basic Information
目录编号:
52261
目录名称:
STARLINK-3810
国际标识:
2022-041A
轨道中心:
EARTH
卫星名称:
星链-3810
卫星全名:
星链-3810 (STARLINK-3810 )
卫星状态:
已陨落 最后检测时间 2024-12-28
发射日期:
2022-04-21 UTC
国别 :
美国 (US)
星等 :
--
Orbit Information
数据来源 国际轨道数据
星历时间: 2024-12-28T09:24:54+0800
轨道信息已过期488天
半长轴: 6522.256km
偏心率: 0.0005044
轨道倾角: 53.190°
近地点辐角 247.548°
升交点赤经 248.250°
平近点角 219.510°
近地点: 140.831km
远地点: 147.411km
周期: 87.369分钟
每日圈数: 16.481855
Detailed Information
固有亮度:
5
最大亮度:
2.5
卫星平台:
Starlink v1.5
覆盖范围:
全球
运营商:
太空探索技术公司
运营商所在国:
美国
制造商(研发单位):
太空探索技术公司
制造商所在国:
美国
使用方式:
暂无
Satellite Introduction
星链(Starlink)计划是由太空探索技术公司(SpaceX)提出的一个巨型低轨卫星互联网星座项目,计划在2019年至2024年间在太空搭建由约1.2万颗卫星组成的“星链”网络,其中1584颗将部署在地球上空550千米处的近地轨道,并从2020年开始工作。该卫星仍在工作。